Back to catalog

STARLINK-36198

AliveCommunicationsVLEO
NORAD 67167·PAYLOAD·🇺🇸 United States

Launched Dec 17, 2025 from Cape Canaveral Space Force Station

Loading…

Next Passes (next 24 hours)

TLE

FreshSource: CelesTrak SupGP

Epoch: Sep 14, 2026, 14:38 UTC

1 67167C 25303E   26257.61020833  .00034488  00000+0  12496-2 0  2572
2 67167  43.0011 324.1725 0001291 275.6046  88.1924 15.27549204    17

Track STARLINK-36198 in real time with AllMySat

Download on the App Store